Wind_Speed
42 39 33 29 29 35 32 29 28 27 26 29 32 36 39 44 49 52 51 51 50 51 50 49 40 39 39 31 33 37 40 40 41 40 42 46 46 49 53 58 62 65 68
38 36 31 37 35 31 25 26 27 26 28 30 33 38 42 47 50 53 51 49 50 47 44 40 36 39 42 32 36 38 38 40 41 41 43 45 49 53 57 59 61 66 68
41 39 41 35 31 25 27 28 26 27 28 32 37 41 46 50 51 50 50 49 47 41 41 37 34 32 32 34 37 38 39 40 40 41 44 49 53 55 56 62 66 63 49
40 39 32 28 25 27 28 27 27 27 31 35 39 43 45 48 51 51 46 44 40 39 38 34 28 31 34 37 38 38 39 39 42 45 47 49 52 55 59 63 55 47 43
43 38 19 17 24 27 27 27 27 29 34 37 39 43 45 47 47 40 37 37 35 34 34 34 33 34 36 36 37 37 38 41 43 45 46 47 53 58 60 55 46 43 43
30 16 17 22 27 28 28 27 28 31 34 37 41 42 45 40 38 32 31 31 31 33 36 35 34 34 36 36 38 39 41 42 43 44 49 52 59 61 57 46 41 39 41
20 21 28 30 30 28 26 27 29 31 35 40 40 41 39 37 34 33 32 28 27 28 30 30 32 34 35 39 40 40 42 45 45 46 52 56 59 58 46 40 40 41 40
19 26 28 30 27 24 25 27 29 33 38 39 38 37 38 35 30 26 27 28 27 27 30 32 32 35 38 38 39 42 46 48 48 52 54 58 59 48 40 38 38 37 37
29 28 29 24 23 24 25 26 32 36 36 34 30 33 28 26 28 23 23 25 28 29 29 33 37 38 37 38 43 45 48 48 51 55 57 56 47 40 37 36 35 35 36
29 27 22 21 22 23 24 29 31 32 32 32 32 32 25 28 24 23 25 27 30 32 33 34 33 33 37 40 43 45 47 50 56 58 54 44 39 35 36 34 34 35 34
21 18 19 20 21 24 26 29 28 28 27 26 29 27 24 21 24 26 27 30 33 32 32 34 34 36 39 42 45 46 48 51 55 52 42 38 35 35 33 35 35 34 32
19 19 20 21 23 25 27 29 27 28 25 23 22 24 21 23 26 28 30 32 32 32 33 33 36 38 40 42 46 48 46 49 52 40 34 35 33 31 32 34 31 32 28
19 19 21 24 25 25 24 22 22 24 25 25 26 27 26 25 29 31 32 30 32 32 32 33 35 37 39 41 47 47 44 49 41 33 31 28 29 27 30 33 29 27 27
20 21 22 22 23 21 18 19 21 19 18 18 17 17 22 27 29 29 29 30 30 31 32 35 36 38 39 40 45 45 43 42 34 29 28 25 27 27 28 30 28 27 23
21 20 17 16 14 15 16 17 18 18 15 17 18 20 24 26 27 27 28 30 32 34 35 36 37 38 40 42 44 42 40 39 32 27 26 21 23 26 26 27 27 25 20
18 14 14 14 14 14 14 16 17 17 16 18 20 20 22 25 26 28 30 32 33 34 35 35 35 37 40 39 40 38 35 32 29 24 23 17 21 24 24 25 25 25 22
17 15 14 13 12 14 17 17 17 17 19 20 20 21 23 26 29 30 32 34 33 34 35 36 38 40 40 41 37 34 33 28 25 22 17 15 19 22 22 23 23 24 24
19 17 13 13 15 17 16 17 17 17 18 19 21 23 26 28 29 31 33 32 32 33 35 38 41 42 40 39 38 36 31 25 21 18 15 13 16 21 19 20 20 21 21
27 15 15 15 17 16 15 16 17 20 21 22 23 24 27 30 31 32 32 33 34 35 39 43 44 42 40 40 39 33 27 23 16 13 10 12 15 20 18 18 17 19 21
14 15 16 16 14 13 14 17 19 20 21 22 24 27 30 31 30 33 33 33 35 39 42 43 43 42 40 36 29 24 22 20 16 10 7 9 10 15 18 14 15 17 18
17 16 14 14 13 14 16 19 20 20 21 23 25 28 30 31 31 31 31 35 38 40 41 40 40 37 31 26 22 20 19 18 12 12 7 7 5 10 15 15 13 16 17
15 11 12 13 15 18 18 17 19 21 23 25 27 32 31 30 30 31 33 36 38 38 41 40 37 32 28 25 22 19 18 18 16 12 7 6 3 5 11 15 16 14 17
12 13 14 15 17 18 18 18 20 22 24 27 30 31 28 28 31 32 35 35 37 36 36 35 33 30 27 23 21 19 18 17 20 16 10 4 3 2 7 12 15 16 15
15 15 15 17 18 19 18 19 20 24 30 30 28 25 26 28 31 33 33 34 34 34 34 32 29 27 23 21 20 19 17 17 19 21 11 2 4 4 4 8 11 16 14
16 15 17 21 20 21 23 25 29 32 30 27 23 25 27 28 31 32 32 32 32 31 31 29 26 23 22 20 18 17 16 15 17 21 12 5 5 5 2 3 6 12 15
17 19 20 23 23 25 27 28 30 28 23 22 24 25 27 29 29 31 31 31 30 30 29 28 25 22 21 19 17 16 15 14 14 18 15 9 3 7 6 3 4 8 12
Wind_Direction
224 229 233 236 235 241 250 253 260 266 270 277 281 288 296 302 306 312 316 320 319 319 316 318 315 311 302 303 312 314 311 313 311 309 311 311 309 309 306 306 307 307 306
227 232 231 233 238 245 251 257 265 269 269 276 288 294 300 305 310 315 318 317 315 314 313 314 311 308 295 303 314 313 312 310 311 314 312 310 309 310 310 310 312 310 308
225 228 227 220 233 254 268 269 269 272 279 287 292 297 302 308 315 316 315 314 311 314 317 313 311 310 321 324 318 316 311 313 314 314 313 315 314 312 314 317 314 315 321
218 217 213 223 242 256 262 266 273 276 281 288 294 302 310 313 313 312 312 312 317 318 313 306 314 319 325 318 312 311 316 317 316 316 317 315 317 316 317 316 322 323 324
219 216 206 238 249 255 260 267 269 276 283 292 301 309 311 313 313 317 320 320 321 314 318 323 328 323 315 314 315 315 315 316 317 318 318 321 326 323 318 322 324 324 322
203 221 244 257 255 257 267 268 271 279 292 303 309 310 311 313 316 318 319 315 313 313 318 323 322 318 315 315 317 317 318 318 320 320 322 322 326 323 322 323 321 318 319
196 217 238 246 253 262 265 267 275 290 301 306 306 310 311 311 307 311 312 318 316 318 320 320 316 314 318 321 319 320 322 322 323 322 325 326 322 320 322 322 326 326 328
224 232 241 252 261 263 265 276 289 298 302 304 306 308 313 316 313 311 313 316 316 316 315 313 315 318 320 320 323 323 325 327 328 328 327 323 320 325 324 327 329 333 336
229 239 249 258 257 262 275 290 297 300 301 303 309 310 314 316 317 315 319 318 313 313 316 321 321 319 322 326 327 329 329 328 329 330 327 323 327 327 329 334 337 342 346
236 244 247 251 260 273 289 296 298 301 307 301 302 304 301 305 313 312 315 315 312 317 322 322 322 322 326 329 330 327 330 332 334 329 326 328 330 333 335 340 343 347 351
241 242 250 263 275 287 293 294 291 305 306 307 303 305 306 311 311 313 314 313 316 323 324 323 323 325 327 331 330 330 331 331 330 326 329 333 337 338 340 343 346 351 351
237 247 257 268 282 286 285 291 289 305 308 305 304 310 304 308 308 313 315 318 321 321 321 321 323 328 332 331 334 337 334 333 331 332 339 340 340 342 345 346 352 354 360
244 254 267 277 278 284 288 293 303 305 306 305 307 303 299 308 311 311 314 317 319 317 318 321 325 329 328 329 334 337 337 337 335 338 340 342 343 346 350 354 356 3 7
250 262 269 278 285 285 286 297 302 310 312 310 305 302 307 307 306 309 312 317 316 318 323 324 324 324 323 327 334 340 341 337 335 336 339 343 344 348 352 356 360 -0 10
253 261 271 282 286 288 292 291 300 309 308 303 301 305 305 305 309 313 318 320 322 323 321 322 324 325 327 329 335 341 341 336 334 334 335 342 341 346 350 354 2 3 358
251 256 273 271 274 277 291 298 304 307 308 306 307 308 312 316 320 321 321 320 320 322 323 321 321 323 324 326 330 330 329 329 327 328 329 335 343 343 348 352 359 1 1
236 254 259 263 278 284 290 295 300 306 308 309 311 315 318 319 319 321 321 319 321 323 319 318 319 322 323 325 320 315 318 318 316 318 325 328 346 346 347 349 354 356 360
257 258 254 263 271 277 285 295 301 304 305 309 310 313 317 318 318 318 319 321 322 319 317 317 320 321 317 313 307 304 309 312 311 316 326 327 341 348 352 356 357 358 2
250 228 245 257 264 272 283 290 296 301 304 307 314 317 316 316 317 320 321 318 318 319 320 321 321 316 311 307 308 309 311 313 310 313 322 328 338 353 354 359 6 5 4
227 237 246 255 263 279 292 299 302 304 308 312 313 314 316 316 318 320 318 318 321 322 323 321 317 314 314 315 316 318 318 323 323 324 318 330 336 358 354 356 8 4 5
237 235 244 257 272 284 288 293 298 302 304 303 304 308 317 318 316 317 320 322 323 327 327 327 328 327 324 321 320 321 326 331 315 321 326 351 338 357 359 6 13 16 13
230 241 257 270 278 280 285 296 300 301 300 303 310 314 316 315 317 320 323 325 329 331 332 335 335 333 326 327 327 328 333 337 334 309 325 344 297 342 351 6 16 20 22
246 257 264 268 273 282 287 292 295 298 305 311 313 313 311 315 319 321 324 329 331 334 334 335 336 336 334 333 331 333 336 340 340 326 330 315 251 295 338 359 12 18 26
255 261 268 273 278 283 288 292 300 308 312 311 308 308 311 316 320 323 327 330 332 332 330 328 330 332 335 337 336 338 336 343 341 341 326 314 226 248 310 343 3 15 25
261 268 276 276 280 281 285 294 300 308 307 304 304 308 312 317 320 323 327 329 329 330 327 330 330 332 335 336 336 337 338 339 342 343 337 5 212 228 228 335 18 13 21
267 275 280 283 284 288 295 302 305 303 296 298 303 308 311 317 320 322 324 324 325 325 325 328 329 332 333 332 332 334 338 338 342 340 346 326 25 204 229 229 0 5 7
Height
5791 5795 5802 5805 5804 5806 5809 5811 5812 5812 5813 5812 5811 5808 5805 5800 5795 5790 5784 5777 5769 5762 5756 5750 5746 5743 5740 5737 5733 5729 5724 5718 5713 5706 5698 5691 5684 5678 5670 5661 5653 5644 5634
5787 5791 5793 5793 5796 5800 5803 5805 5806 5807 5807 5806 5803 5800 5795 5791 5786 5780 5774 5767 5759 5753 5749 5743 5740 5737 5734 5730 5726 5721 5715 5709 5705 5698 5690 5684 5676 5669 5660 5650 5639 5628 5618
5778 5780 5783 5784 5789 5793 5795 5796 5798 5799 5799 5797 5795 5791 5788 5783 5777 5770 5763 5756 5751 5746 5742 5737 5735 5730 5726 5722 5718 5713 5708 5702 5695 5688 5682 5675 5667 5659 5648 5636 5625 5614 5605
5770 5769 5773 5778 5782 5785 5789 5790 5791 5792 5791 5790 5787 5785 5780 5773 5767 5761 5755 5749 5743 5738 5735 5733 5728 5724 5721 5717 5711 5706 5701 5694 5687 5680 5673 5665 5657 5647 5636 5626 5612 5602 5596
5761 5761 5763 5772 5776 5780 5783 5784 5785 5786 5784 5783 5780 5775 5770 5764 5758 5751 5747 5742 5738 5734 5731 5728 5723 5718 5714 5710 5705 5700 5695 5688 5680 5672 5664 5656 5646 5633 5622 5612 5604 5596 5587
5749 5757 5763 5767 5773 5776 5778 5778 5779 5780 5779 5776 5771 5766 5762 5756 5751 5747 5743 5739 5734 5730 5725 5721 5717 5713 5709 5704 5698 5693 5687 5680 5673 5663 5655 5645 5633 5622 5611 5604 5597 5589 5583
5749 5757 5762 5767 5769 5771 5772 5773 5774 5773 5770 5767 5763 5758 5754 5749 5745 5742 5739 5734 5730 5725 5721 5717 5712 5707 5702 5698 5692 5686 5679 5671 5663 5655 5645 5636 5624 5614 5606 5597 5588 5579 5570
5749 5755 5758 5762 5764 5766 5767 5768 5767 5765 5762 5759 5755 5752 5748 5744 5740 5736 5734 5730 5725 5720 5716 5711 5707 5703 5698 5692 5686 5679 5672 5664 5655 5646 5637 5626 5615 5605 5597 5590 5581 5572 5562
5746 5749 5753 5757 5760 5761 5761 5761 5760 5758 5755 5751 5749 5746 5743 5740 5736 5732 5728 5725 5721 5716 5710 5706 5702 5697 5692 5686 5679 5672 5664 5656 5647 5637 5625 5614 5605 5598 5592 5584 5575 5567 5559
5742 5746 5750 5753 5755 5754 5754 5753 5752 5750 5747 5745 5743 5740 5737 5734 5730 5727 5723 5719 5716 5712 5706 5701 5697 5693 5688 5681 5673 5666 5658 5648 5637 5625 5616 5607 5600 5593 5587 5579 5572 5562 5555
5739 5742 5744 5746 5746 5747 5747 5747 5745 5744 5743 5739 5735 5733 5730 5727 5724 5721 5718 5714 5710 5705 5700 5696 5692 5687 5681 5675 5667 5660 5652 5643 5633 5621 5612 5604 5597 5589 5583 5576 5568 5560 5552
5734 5737 5739 5741 5740 5741 5741 5740 5740 5740 5735 5732 5729 5727 5725 5722 5719 5716 5712 5708 5704 5701 5696 5692 5686 5680 5674 5668 5662 5654 5645 5636 5626 5617 5608 5603 5596 5587 5581 5574 5566 5559 5552
5730 5731 5733 5735 5734 5734 5735 5735 5734 5730 5729 5726 5724 5722 5719 5716 5714 5711 5707 5703 5700 5696 5691 5687 5682 5676 5669 5663 5656 5648 5639 5630 5620 5613 5607 5600 5595 5588 5580 5572 5566 5560 5553
5724 5728 5729 5727 5728 5729 5729 5728 5728 5727 5723 5722 5719 5717 5714 5712 5710 5707 5703 5699 5695 5690 5685 5680 5675 5669 5663 5657 5649 5641 5633 5625 5617 5610 5604 5599 5593 5587 5580 5573 5565 5558 5553
5720 5721 5722 5723 5723 5725 5725 5725 5723 5721 5719 5718 5715 5712 5711 5709 5705 5701 5698 5694 5689 5684 5679 5674 5668 5662 5655 5649 5642 5634 5626 5619 5612 5606 5602 5596 5591 5585 5579 5573 5566 5560 5554
5715 5717 5718 5720 5722 5722 5720 5719 5718 5717 5715 5714 5712 5709 5707 5704 5700 5697 5693 5689 5684 5679 5673 5667 5661 5655 5648 5642 5634 5627 5620 5612 5608 5603 5599 5594 5589 5583 5578 5572 5566 5561 5555
5712 5714 5715 5714 5714 5716 5716 5715 5714 5712 5711 5709 5707 5704 5701 5698 5696 5692 5688 5683 5677 5672 5667 5661 5655 5647 5640 5634 5627 5621 5615 5608 5603 5599 5594 5591 5586 5582 5576 5571 5566 5561 5555
5704 5704 5706 5709 5712 5712 5712 5710 5709 5707 5706 5704 5703 5700 5696 5693 5690 5686 5682 5676 5671 5666 5660 5654 5646 5639 5632 5624 5618 5612 5607 5601 5597 5594 5590 5587 5583 5580 5575 5570 5566 5561 5556
5699 5703 5706 5707 5708 5707 5706 5705 5705 5704 5702 5700 5697 5694 5692 5689 5685 5680 5675 5670 5665 5659 5652 5644 5637 5629 5622 5616 5610 5605 5600 5595 5591 5588 5587 5584 5581 5578 5574 5570 5566 5562 5557
5698 5700 5702 5703 5703 5702 5701 5700 5699 5697 5696 5694 5692 5690 5687 5683 5678 5674 5669 5664 5657 5650 5642 5635 5627 5620 5613 5607 5602 5598 5594 5591 5587 5584 5582 5581 5580 5577 5574 5570 5566 5562 5558
5695 5697 5698 5698 5697 5697 5697 5696 5695 5693 5692 5690 5688 5684 5680 5676 5671 5666 5661 5655 5648 5641 5634 5626 5618 5611 5606 5601 5597 5592 5589 5587 5584 5580 5578 5577 5577 5577 5574 5571 5567 5563 5560
5691 5691 5692 5692 5692 5693 5692 5689 5688 5687 5686 5684 5680 5676 5672 5669 5664 5659 5654 5648 5641 5634 5626 5619 5613 5607 5602 5597 5593 5589 5586 5583 5579 5577 5575 5574 5575 5575 5574 5571 5567 5564 5561
5685 5686 5686 5687 5688 5687 5686 5684 5683 5681 5679 5676 5672 5669 5665 5662 5657 5653 5647 5641 5634 5627 5621 5616 5610 5605 5600 5595 5591 5587 5583 5580 5577 5574 5572 5572 5572 5573 5573 5572 5569 5566 5563
5680 5681 5681 5682 5681 5681 5680 5678 5677 5674 5672 5669 5665 5662 5659 5655 5651 5646 5640 5634 5628 5623 5617 5613 5606 5601 5596 5592 5588 5585 5582 5579 5575 5572 5570 5569 5570 5571 5572 5571 5570 5568 5565
5675 5675 5675 5676 5676 5675 5674 5672 5670 5667 5664 5661 5659 5656 5653 5648 5643 5639 5634 5628 5623 5618 5613 5609 5603 5598 5594 5589 5586 5583 5580 5577 5575 5571 5569 5568 5568 5570 5570 5571 5570 5569 5566
5668 5670 5669 5670 5669 5668 5666 5663 5661 5658 5656 5654 5652 5649 5645 5642 5637 5632 5628 5624 5619 5614 5609 5605 5600 5595 5591 5587 5584 5581 5579 5576 5574 5571 5568 5566 5566 5568 5569 5569 5569 5569 5567